GFSMA_925_spd_120.txt.gz
Wind_Speed
32 30 26 22 22 19 16 15 10 10 8 7 7 7 7 6 6 3 3 4 5 5 4 4 4 3 3 3 3 3 4 4 4 3 3 3 4 5 6 7 9 10 11
33 30 28 23 20 20 15 12 11 12 9 7 6 5 6 5 6 4 3 3 4 5 5 4 4 2 1 1 1 1 1 1 1 1 1 1 1 2 3 4 5 6 8
32 31 29 24 22 18 18 14 12 11 9 7 7 6 6 6 6 6 6 4 5 5 6 5 5 5 5 4 3 3 3 3 3 3 3 2 1 2 2 2 3 4 6
29 34 30 25 20 18 17 15 14 12 10 8 7 7 6 6 5 6 7 6 6 3 4 6 7 8 8 8 8 8 7 7 7 8 7 6 5 4 3 2 1 2 3
26 32 30 25 23 19 16 15 14 13 10 10 6 5 6 5 5 4 4 4 6 7 5 7 6 7 9 9 9 9 9 9 9 10 11 10 9 7 6 5 3 3 2
28 26 25 23 22 20 19 17 16 13 12 9 7 6 6 5 4 5 5 6 6 7 8 8 7 7 8 11 11 10 8 6 7 5 7 11 12 10 8 9 9 8 7
30 25 25 25 24 23 20 19 16 14 11 8 5 6 6 7 6 4 5 6 4 6 8 9 5 7 10 11 13 12 11 9 6 4 7 9 10 9 13 14 13 12 11
33 28 28 27 25 22 20 18 17 15 10 8 3 2 2 2 4 5 6 7 9 10 10 10 10 9 10 9 9 12 12 13 11 8 4 5 6 7 7 8 14 16 14
33 29 29 29 25 23 21 19 17 14 10 6 8 3 1 2 2 4 3 3 3 5 6 10 11 10 11 10 9 10 10 12 12 12 8 7 8 7 8 8 9 11 15
33 28 29 28 25 22 20 19 14 13 8 8 7 6 3 2 2 0 2 3 6 7 4 4 4 6 7 7 7 6 6 8 9 9 10 9 8 7 9 9 8 8 8
33 30 30 27 27 23 21 18 16 12 8 8 6 6 3 2 3 3 2 4 7 7 6 6 6 7 7 8 9 9 9 10 10 11 11 11 10 8 5 8 7 8 8
34 30 30 29 24 23 21 20 17 13 11 7 7 5 5 3 5 5 3 6 6 5 7 8 11 9 9 11 10 12 13 13 12 12 12 12 10 9 7 6 8 10 10
31 31 29 27 25 24 21 17 16 13 7 4 6 6 7 9 8 8 5 6 4 3 6 8 4 5 7 10 11 11 12 13 12 13 12 10 11 10 5 7 9 14 19
30 32 30 27 25 22 20 19 13 8 5 3 4 6 6 8 7 6 6 3 2 2 7 7 4 3 6 5 8 10 8 9 9 12 9 10 11 7 6 7 10 14 18
30 30 28 25 23 22 21 17 13 8 8 7 10 11 12 11 10 10 7 4 1 1 2 5 2 3 5 10 14 13 7 6 7 6 6 8 5 7 8 10 12 13 16
31 31 26 22 24 21 18 14 10 7 10 9 11 13 13 13 11 8 7 4 5 5 2 2 8 8 13 14 13 10 8 7 7 10 10 9 9 8 9 9 10 11 11
26 28 25 23 24 21 17 16 10 9 13 16 16 12 12 11 8 5 4 4 3 4 6 14 14 14 16 14 14 11 9 9 9 10 11 11 10 9 8 7 7 8 7
22 25 22 23 21 16 15 14 12 20 22 19 17 15 13 10 7 6 6 4 4 6 7 9 12 12 12 13 14 13 11 10 10 11 10 10 9 8 6 5 5 3 4
31 30 24 22 19 17 19 20 24 24 22 18 15 14 12 9 8 7 6 6 7 8 7 7 8 12 13 12 10 10 12 10 10 10 9 9 8 8 7 5 4 4 5
22 23 24 24 22 22 28 29 24 22 21 20 18 16 15 12 11 8 6 6 8 7 5 6 9 9 9 11 13 13 12 11 11 10 9 10 10 10 7 7 6 6 6
20 20 22 23 23 27 27 25 23 23 22 18 15 14 11 9 8 9 9 9 9 7 3 6 9 7 10 10 9 7 10 10 11 13 10 13 14 11 9 8 7 6 7
17 19 22 24 25 26 24 22 22 22 19 16 14 11 8 7 6 6 6 6 7 5 7 7 7 8 9 9 8 7 8 5 3 7 12 14 14 12 12 10 9 8 8
18 19 19 22 22 20 19 21 22 20 19 17 13 12 10 8 7 7 5 4 5 6 8 7 10 9 7 4 6 7 9 9 7 10 8 10 16 15 14 14 12 10 10
17 18 18 19 19 19 21 21 20 17 16 13 11 9 8 7 7 7 7 6 6 6 7 8 10 11 10 9 9 10 10 12 12 12 10 5 9 13 14 15 14 12 12
16 17 18 18 17 18 21 20 18 16 13 11 10 8 9 8 7 7 6 7 6 5 7 7 7 8 8 8 7 7 8 8 5 6 11 7 6 7 10 12 13 12 13
12 14 13 12 14 17 20 19 17 16 15 13 11 9 8 8 8 6 7 7 7 5 8 8 7 6 5 5 7 5 6 8 7 3 6 11 8 8 4 10 12 11 13

GFSMA_925_spd_123.txt.gz
Wind_Speed
34 32 30 27 25 24 23 22 16 12 10 10 9 9 11 8 7 4 4 4 5 5 4 4 3 3 3 3 3 3 4 4 4 4 4 3 4 6 8 10 10 9 10
36 35 32 28 25 22 22 19 15 13 13 11 12 9 9 8 7 4 4 3 3 3 3 4 4 3 1 1 1 1 2 2 2 2 2 2 3 3 2 2 2 4 6
38 36 31 29 28 23 22 17 15 16 12 12 10 8 8 8 7 5 3 3 3 2 4 5 5 5 4 4 3 2 1 1 2 2 2 1 1 3 4 2 1 2 4
38 37 32 29 28 26 22 19 19 17 15 10 11 9 8 5 7 6 5 5 5 4 3 4 7 7 8 8 8 8 7 6 5 5 5 6 7 7 6 4 2 1 1
41 36 33 32 29 26 26 23 20 18 15 12 9 9 8 6 5 5 7 7 7 6 5 5 7 8 9 9 8 8 7 7 7 7 8 9 8 9 8 7 6 5 3
43 40 36 33 28 28 26 24 22 18 14 13 10 7 6 5 6 5 5 6 5 7 7 8 8 8 9 10 12 11 8 6 5 4 3 4 6 10 11 10 10 9 8
38 40 40 38 34 31 28 25 21 18 15 13 11 6 6 7 7 6 6 7 5 7 8 9 10 10 11 11 9 9 8 7 6 5 4 3 4 6 6 10 13 13 12
36 41 40 39 36 31 27 25 25 19 14 14 7 6 2 2 5 7 7 7 7 8 7 8 10 6 7 8 8 8 8 8 8 9 9 8 5 4 5 5 7 12 17
40 39 39 37 35 33 31 28 24 23 14 14 11 5 2 3 4 5 5 3 2 2 5 7 8 10 9 9 8 8 7 6 6 7 8 8 8 7 6 7 7 8 9
42 38 37 35 34 33 30 28 25 23 20 18 14 8 5 6 3 1 3 1 1 5 2 4 4 4 5 5 6 6 4 4 5 6 9 9 10 9 8 8 6 6 7
41 37 37 35 35 33 31 29 27 24 19 19 17 12 8 7 6 3 1 1 3 4 2 4 5 6 5 5 5 6 6 7 8 9 9 9 10 8 9 5 5 7 8
40 37 38 38 36 34 32 31 27 24 21 19 16 14 11 4 7 5 2 4 4 3 1 4 5 5 5 5 6 8 9 10 11 12 12 9 10 7 7 5 6 9 12
34 37 38 40 36 33 33 29 26 23 20 20 17 16 12 12 10 10 8 4 3 3 3 3 3 1 2 5 6 9 8 8 9 10 11 9 9 9 10 9 10 12 14
38 42 42 40 37 34 30 28 25 24 19 14 13 13 13 11 9 12 10 7 1 2 2 1 3 2 2 3 5 10 9 8 5 9 10 7 6 10 9 9 13 15 16
37 42 42 39 34 33 31 27 26 21 16 11 12 13 14 11 9 9 9 9 6 2 2 3 3 3 1 7 9 10 7 6 6 6 5 8 11 8 8 11 13 14 16
42 41 37 34 34 32 31 29 22 18 16 11 11 16 11 7 7 9 9 10 10 9 3 5 3 3 4 10 12 10 8 8 7 7 9 10 9 9 9 10 10 10 14
41 39 37 37 36 33 30 26 21 17 15 13 14 10 7 9 10 8 8 9 10 11 8 5 4 3 7 11 12 10 11 10 10 8 10 11 12 12 12 10 9 8 10
30 35 37 37 36 33 30 23 19 17 16 17 10 7 12 11 10 10 11 11 11 10 7 3 4 6 8 11 13 10 8 10 12 10 10 12 13 11 9 8 7 5 5
30 33 33 34 35 33 27 22 20 20 16 15 13 14 15 14 12 12 11 12 12 9 7 4 6 9 9 10 12 12 11 12 12 12 11 12 11 10 11 8 6 5 4
21 23 30 30 30 29 26 25 21 11 18 20 19 17 18 17 15 15 14 12 9 8 7 6 8 9 8 8 10 11 13 12 12 11 12 13 12 13 11 10 8 5 4
24 29 30 28 28 32 33 25 20 26 22 22 20 19 19 17 16 14 13 10 9 8 7 9 7 6 7 5 6 6 10 13 14 12 11 12 14 16 14 11 9 5 5
19 18 19 23 26 32 29 29 25 28 28 25 22 19 16 16 15 13 11 10 10 10 11 11 10 10 9 6 7 8 9 7 4 4 7 12 15 17 15 12 10 8 8
13 15 16 20 21 21 21 22 22 25 25 22 21 19 18 15 14 11 9 9 9 9 9 10 11 11 8 7 8 9 10 10 8 10 8 10 13 18 17 15 14 12 9
9 11 12 12 11 13 18 19 21 21 21 21 20 19 18 16 12 11 11 10 10 9 9 7 9 8 9 10 12 13 11 13 13 14 11 5 10 14 16 17 16 14 12
5 5 6 9 12 13 14 17 20 21 20 19 18 17 15 13 12 11 10 10 9 7 7 5 5 7 8 9 8 10 11 11 6 6 9 7 9 10 10 15 15 14 13
4 4 5 4 6 9 13 14 17 18 19 17 15 14 13 12 12 11 8 7 7 8 8 8 7 8 9 8 7 8 10 11 9 4 8 10 7 7 4 10 11 11 13

GFSMA_925_spd_126.txt.gz
Wind_Speed
34 32 31 29 28 27 26 25 25 23 17 14 9 14 14 11 7 7 6 6 6 5 5 5 5 4 3 3 2 3 2 2 1 1 1 1 1 3 3 5 6 8 8
37 35 33 30 29 29 28 26 23 19 15 12 10 13 13 12 8 6 5 5 5 4 4 4 5 4 2 2 2 1 0 0 1 2 2 3 3 3 4 4 4 5 5
39 38 35 32 31 30 29 24 20 15 13 13 15 13 10 12 10 7 5 5 5 4 5 5 6 5 4 5 5 5 3 2 2 3 4 5 5 5 4 5 4 3 3
43 39 37 34 32 31 30 25 21 17 15 15 14 12 11 10 9 8 7 7 7 5 4 6 7 7 8 8 9 9 9 9 7 6 5 6 7 7 6 6 7 5 5
44 43 40 36 34 32 31 27 22 21 18 14 14 12 11 9 9 7 9 9 8 8 7 6 7 8 8 8 9 9 8 9 8 7 8 9 10 10 9 9 10 8 8
43 43 41 38 37 34 32 27 25 22 20 16 12 12 10 8 8 7 7 8 8 9 9 9 8 9 9 9 9 9 8 4 4 5 4 3 6 8 10 12 11 11 11
43 43 40 40 40 37 34 32 27 23 20 19 15 10 8 7 8 7 8 6 6 7 9 8 7 7 8 8 8 7 4 4 4 4 4 7 8 6 7 7 9 13 14
45 42 41 42 42 36 38 33 31 25 20 21 11 10 2 1 6 8 8 6 7 7 8 9 8 6 6 6 7 7 6 5 5 7 6 4 4 5 6 7 7 9 10
46 43 44 43 42 38 39 36 33 31 23 24 17 7 2 3 4 6 7 6 5 5 6 7 7 7 6 6 7 5 5 4 4 5 5 5 7 7 7 7 9 8 7
46 46 47 44 45 41 40 37 34 33 29 25 19 11 5 7 3 2 6 7 5 4 4 2 2 3 2 2 2 3 3 4 4 5 7 8 8 8 7 7 3 5 6
49 48 45 46 43 43 40 37 35 34 32 27 24 16 11 7 6 3 2 3 6 4 4 2 3 2 2 3 3 4 5 6 8 10 11 9 8 9 6 5 5 6 9
42 46 45 45 45 40 40 37 35 33 30 27 26 23 19 7 6 5 2 2 5 3 3 2 2 3 3 4 4 4 6 8 10 12 13 11 9 9 9 6 6 8 11
35 41 46 44 42 40 37 36 34 32 30 28 27 23 20 16 9 12 7 5 3 4 4 4 4 4 4 1 1 4 6 7 8 8 10 12 9 7 7 10 10 11 15
36 43 44 43 41 38 37 36 34 32 29 26 25 22 19 16 13 12 12 8 1 3 4 4 5 5 4 2 2 6 7 8 6 5 7 6 6 8 8 8 11 15 17
36 43 43 43 40 39 38 37 35 33 28 27 23 20 18 16 16 14 17 13 7 3 4 5 5 6 4 2 8 11 8 6 6 6 5 6 8 9 11 11 12 14 16
37 42 42 42 41 40 38 37 35 31 29 26 23 21 20 20 19 16 14 14 12 9 3 8 6 10 5 4 6 9 4 4 6 7 6 9 10 9 9 10 12 13 14
40 43 44 43 43 42 40 37 34 33 28 26 25 24 23 24 20 17 15 16 15 14 7 8 8 8 6 5 5 6 6 5 7 9 9 9 10 10 11 10 10 10 12
35 39 39 42 44 42 39 37 34 32 29 26 25 27 28 24 18 17 17 16 13 12 12 11 11 10 8 7 10 8 9 9 8 9 10 12 11 11 9 9 8 8 8
34 36 36 37 42 38 35 35 35 32 30 29 31 31 26 23 20 18 14 15 17 15 14 11 11 10 8 7 7 7 9 10 10 11 11 11 12 9 10 9 8 7 6
26 29 29 33 34 37 38 38 36 34 31 29 29 27 27 24 17 16 17 18 18 17 16 13 10 9 8 7 6 8 8 9 10 10 10 11 11 11 11 9 9 7 5
18 22 27 29 36 33 35 38 37 34 30 28 30 27 24 24 21 19 19 23 23 21 17 15 12 9 8 6 5 3 8 10 12 10 10 10 10 10 12 12 10 8 6
12 14 17 19 30 30 34 34 32 33 32 32 34 28 27 22 21 21 21 21 20 22 20 16 14 11 12 9 8 7 7 5 4 3 6 6 9 11 13 13 10 9 7
9 10 13 15 15 19 24 28 33 38 37 37 36 33 24 23 22 19 20 19 18 17 15 15 16 15 11 13 11 9 8 7 7 10 11 11 9 12 13 15 13 11 10
5 4 3 5 8 8 8 9 18 22 25 27 25 24 26 24 22 22 22 19 15 13 11 10 11 9 10 9 9 9 9 8 11 12 12 6 10 11 10 15 16 14 13
8 8 6 4 2 1 3 5 8 9 13 14 18 20 20 21 22 21 18 16 14 12 10 9 7 6 8 8 8 9 7 6 4 4 6 9 8 8 10 11 13 15 15
7 5 5 4 3 1 3 5 6 8 10 14 14 15 16 17 17 18 18 18 17 15 15 13 9 8 8 8 9 9 9 9 7 3 3 6 6 4 4 6 10 13 13

GFSMA_925_spd_129.txt.gz
Wind_Speed
34 34 29 27 26 25 26 26 26 25 20 16 13 12 11 9 8 7 6 6 5 4 4 3 3 2 2 1 0 1 1 1 2 3 3 4 4 5 6 7 8 10 11
36 36 34 31 28 28 27 27 29 25 20 15 11 13 14 11 8 7 6 5 5 4 4 3 3 3 2 2 3 3 3 3 3 3 4 4 5 5 6 6 7 8 8
37 33 36 34 32 31 29 27 26 22 17 14 12 14 15 13 10 8 7 6 5 5 4 4 5 6 5 5 7 7 5 4 4 4 5 6 6 7 6 6 5 6 7
39 37 37 36 34 32 31 29 27 21 16 14 16 15 14 15 12 10 9 8 7 6 5 5 6 8 9 9 9 10 10 11 10 9 8 8 8 8 8 8 8 7 6
41 39 39 38 37 36 34 32 27 23 19 18 16 14 13 13 12 11 11 10 9 8 8 7 7 8 9 9 10 10 8 7 6 6 7 9 10 10 10 10 8 9 7
40 41 40 39 39 38 37 33 29 23 21 18 16 13 12 11 12 10 10 11 10 11 11 9 8 8 9 9 9 8 7 3 3 5 5 6 7 7 8 8 9 10 10
42 42 41 41 41 41 40 36 30 25 23 20 17 11 9 9 10 10 9 9 9 9 9 8 7 6 6 7 7 5 5 4 4 3 7 7 6 5 7 7 8 7 9
42 41 40 42 43 40 38 38 32 28 24 24 13 11 2 3 8 9 10 10 8 7 6 7 6 6 5 5 5 6 5 4 4 4 5 5 5 6 7 6 7 6 7
37 43 39 40 42 37 41 41 35 33 24 28 19 9 2 4 4 7 10 9 9 8 7 7 7 6 6 7 6 4 4 3 3 2 3 4 6 7 8 5 7 3 6
33 39 36 39 42 40 39 42 39 37 32 26 20 20 6 6 3 2 6 8 8 7 6 5 5 4 3 4 4 3 3 3 4 5 5 6 6 8 5 3 1 4 6
43 45 38 40 38 43 43 41 42 39 36 30 27 20 10 8 6 3 3 6 8 7 8 6 5 4 4 4 4 4 5 5 7 9 9 9 8 7 6 5 5 4 6
41 43 47 43 43 43 44 42 43 39 36 33 34 26 21 9 8 5 2 3 6 7 7 7 6 6 5 5 6 5 5 7 8 8 7 8 8 7 6 6 7 6 8
40 40 46 48 43 44 46 44 43 39 37 34 32 30 28 23 12 14 8 4 4 5 6 8 7 7 6 5 6 5 5 7 7 5 6 4 4 7 9 8 8 7 9
42 43 47 47 43 46 48 46 43 38 37 34 32 32 29 27 21 19 13 11 2 4 7 6 8 9 9 8 7 7 9 10 6 4 5 4 5 7 8 8 8 9 11
41 42 50 46 45 48 47 45 41 38 36 32 32 31 30 24 21 18 18 18 11 4 5 9 9 13 11 10 8 10 12 11 8 5 5 5 6 8 7 8 10 10 12
33 39 47 42 41 46 44 41 37 36 34 33 32 31 26 25 23 21 18 20 19 14 3 14 16 14 15 11 10 10 9 7 6 7 9 9 9 8 9 8 9 10 11
33 33 37 38 40 44 42 38 37 36 34 34 32 30 26 26 26 26 21 23 21 18 6 11 15 16 16 15 13 11 10 11 8 8 10 10 10 11 9 9 9 8 8
36 37 37 37 38 39 38 38 37 37 37 35 34 30 29 28 27 27 28 26 24 18 12 12 18 18 17 15 13 12 11 12 11 10 10 11 11 10 9 7 7 7 8
34 36 34 34 35 36 36 36 37 39 37 37 35 32 35 32 32 31 29 29 27 24 21 15 16 15 15 14 13 12 11 8 8 10 11 10 10 9 8 8 7 7 6
27 28 30 33 34 34 35 36 39 37 34 36 34 35 38 34 37 35 34 32 27 25 21 18 15 15 15 13 13 12 9 7 7 6 8 9 10 11 10 10 8 6 5
19 25 27 27 27 28 30 31 32 32 33 34 35 40 39 40 42 38 39 35 27 24 20 19 14 12 13 12 13 9 7 6 7 5 5 7 8 9 11 11 9 7 5
14 20 12 11 13 16 17 22 27 30 34 37 39 42 41 40 41 40 39 32 26 26 26 25 23 14 17 15 13 12 9 3 3 5 2 3 5 8 11 12 10 8 7
11 8 9 7 8 12 21 21 22 27 33 39 41 43 41 42 41 38 36 28 24 25 27 27 26 22 17 18 16 15 14 10 6 6 7 7 5 8 8 11 12 10 10
15 13 12 10 7 5 3 4 6 8 13 20 27 31 33 34 31 30 24 20 22 22 21 21 21 18 17 14 15 13 12 10 10 10 8 4 5 7 7 8 12 12 11
15 14 11 9 7 4 4 4 3 1 2 5 8 12 17 16 16 18 16 17 19 18 17 17 15 14 13 13 12 12 11 9 6 5 8 6 5 5 7 9 10 12 13
15 13 12 10 8 5 4 5 2 3 2 1 2 3 5 9 13 16 20 21 19 20 21 18 14 13 13 13 13 14 13 15 7 4 9 8 4 2 3 3 6 9 10